Find Yaogan 31 hao 04 zu 01 xing

NORAD ID: 47854 Int'l Des: 2021-020 Owner: ZLZB Country: CN Constellation: yaogan operational
LEO

リアルタイム位置

3D地球を読み込み中...

Yaogan 31 hao 04 zu 01 xingについて

説明を読み込み中...

次回通過

Passes for default location (London). Set your location on the main map for personalized predictions.

高度履歴

Loading altitude history...

軌道要素

1 47854U 21020A 26104.53746139 -.00000028 00000-0 95944-4 0 9990
2 47854 63.4055 61.5519 0169605 0.1987 359.9078 13.45443896249904
Epoch: Apr 14, 2026 • Age: 3 hours

現在のステータス

高度 1045.4 km
速度 7.36 km/s
衛星直下点 -51.68°S, 63.28°W
打ち上げ日 Mar 13, 2021
運用期間 5 years
タイプ military

技術仕様

分類 Payload
質量 500.00 kg
乾燥質量 500.00 kg
総質量 500.00 kg
長さ 0.50 m
直径 0.50 m
スパン 1.00 m
形状 Box + 2 Pan
製造者 DFHZ
バスタイプ JB-8B
フェーズステータス In Orbit
所有者/国 ZLZB/CN

Most Searched